#timestamp,LO_Frequency,Hit,StdDev 
1460095215.8,286047000.9,N
1460095235.7,286047001.0,N
1460095255.5,286046996.8,N
1460095275.3,286047000.6,N
1460095295.2,286047000.2,N
1460095315.9,286046999.0,N
1460095335.7,286046995.8,N
1460095355.6,286046995.3,N
1460095375.4,286046994.9,N
1460095395.2,286046997.3,N
1460095415.1,286046995.0,N
1460095416.0,286046995.0,N
1460095435.8,286046996.3,N
1460095455.6,286046995.7,N
1460095475.5,286046994.0,N
1460095495.3,286046992.6,Y
1460095515.1,286046996.1,P
1460095535.9,286046995.4,P
1460095555.7,286046996.4,P
1460095575.5,286046994.7,Y
1460095595.4,286046996.9,P
1460095615.2,286047001.6,P
1460095635.0,286047004.5,N
1460095635.9,286047004.5,N
1460095655.8,286047007.9,N
1460095675.6,286047007.2,N
1460095695.4,286047007.4,N
1460095715.2,286047008.3,N
1460095735.1,286047009.8,N
1460095736.0,286047009.8,N
1460095755.8,286047011.6,N
1460095775.6,286047012.6,N
1460095795.5,286047012.0,N
1460095815.3,286047008.0,N
1460095835.1,286047013.6,N
1460095855.9,286047011.5,N
1460095875.7,286047010.9,N
1460095895.5,286047010.2,N
1460095915.4,286047006.5,N
1460095935.2,286047005.1,N
1460095955.0,286047001.9,N
1460095955.9,286047001.9,N
1460095975.8,286047002.8,N
1460095995.6,286047000.7,N
1460096015.4,286046998.2,N
1460096035.2,286046996.6,N
1460096055.1,286046998.1,N
1460096056.0,286046998.1,N
1460096075.8,286046996.9,N
1460096095.6,286046998.8,N
1460096115.5,286047000.0,N
1460096135.3,286046999.8,N
1460096155.1,286047005.8,N
1460096175.9,286047005.7,N
1460096195.7,286047006.6,N
1460096215.5,286047007.0,N
1460096235.4,286047008.8,N
1460096255.2,286047010.0,N
1460096275.0,286047015.0,N
1460096275.9,286047015.0,N
1460096295.8,286047014.5,N
1460096315.6,286047020.1,Y
1460096335.4,286047012.3,P
1460096355.3,286047009.2,N
1460096375.1,286047008.8,P
1460096376.0,286047008.8,Y
1460096395.8,286047002.1,P
1460096415.7,286047006.0,N
1460096435.5,286047003.8,N
1460096455.3,286047002.8,N
1460096475.2,286047005.7,N
1460096495.9,286047008.7,Y
1460096515.7,286047003.4,P
1460096535.6,286047000.9,N
1460096555.4,286046997.5,N
1460096575.2,286046995.0,N
1460096595.1,286046997.1,N
1460096596.0,286046997.1,N
1460096615.8,286046997.7,N
1460096635.6,286046997.3,N
1460096655.4,286046994.5,N
1460096675.3,286046994.8,N
1460096695.1,286046997.0,N
1460096715.8,286046997.8,N
1460096735.7,286046993.4,N
1460096755.5,286046994.6,N
1460096775.3,286046995.8,N
1460096795.2,286046991.8,N
1460096815.9,286046995.6,N
1460096835.7,286046995.0,N
1460096855.6,286046993.4,N
1460096875.4,286046994.2,N
1460096895.2,286046995.4,N
1460096915.1,286046997.6,N
1460096916.0,286046997.6,N
1460096935.8,286046997.2,N
1460096955.6,286046998.0,N
1460096975.4,286046997.5,N
1460096995.3,286046995.6,N
1460097015.1,286046998.8,N
1460097035.8,286047000.2,N
1460097055.7,286046993.5,N
1460097075.5,286046991.9,Y
1460097095.3,286046997.5,P
1460097115.2,286046997.2,P
1460097135.0,286046998.5,P
1460097135.9,286046998.5,N
1460097155.7,286047000.7,N
1460097175.6,286046998.4,N
1460097195.4,286046999.2,N
1460097215.2,286046997.3,N
1460097235.1,286046995.3,Y
1460097236.0,286046995.3,P
1460097255.8,286046996.7,N
1460097275.6,286046998.0,N
1460097295.5,286046996.5,Y
1460097315.3,286047000.5,P
1460097335.1,286046996.7,N
1460097355.9,286046993.4,P
1460097375.7,286046991.8,Y
1460097395.5,286046991.7,P
1460097415.4,286046993.3,N
1460097435.2,286046992.3,P
1460097455.0,286046994.1,N
1460097456.0,286046994.1,Y
1460097475.8,286047007.5,P
1460097495.6,286047002.1,N
1460097515.4,286046998.1,N
1460097535.3,286047000.1,N
1460097555.1,286046999.0,N
1460097575.8,286046994.9,N
1460097595.7,286046997.6,N
1460097615.5,286046997.4,N
1460097635.3,286046995.8,N
1460097655.2,286046991.8,N
1460097675.9,286046993.9,N
1460097695.7,286046995.1,N
1460097715.6,286046995.7,N
1460097735.4,286046993.4,N
1460097755.2,286046996.0,N
1460097775.1,286046997.1,N
1460097776.0,286046997.1,N
1460097795.8,286046998.4,N
1460097815.6,286047002.3,N
1460097835.5,286047004.2,N
1460097855.3,286047005.4,N
1460097875.1,286047004.4,N
1460097895.8,286047001.3,N
1460097915.7,286047001.4,N
1460097935.5,286047001.6,N
1460097955.3,286046998.2,N
1460097975.2,286046998.9,N
1460097995.9,286046995.7,N
1460098015.7,286046998.0,N
1460098035.6,286046999.1,N
1460098055.4,286047000.8,N
1460098075.2,286047002.6,N
1460098095.1,286047002.0,N
1460098096.0,286047002.0,N
1460098115.8,286047005.9,N
1460098135.6,286047003.4,N
1460098155.5,286047003.2,N
1460098175.3,286047001.7,N
1460098195.1,286047001.4,N
1460098215.8,286047002.2,N
1460098235.7,286046999.9,N
1460098255.5,286047004.2,N
1460098275.3,286047004.6,N
1460098295.2,286047004.4,N
1460098315.0,286046999.8,N
1460098315.9,286046999.8,N
1460098335.7,286047001.8,N
1460098355.6,286047004.0,N
1460098375.4,286047003.0,N
1460098395.2,286047003.9,N
1460098415.1,286047007.3,Y
1460098416.0,286047007.3,P
1460098435.8,286047004.8,N
1460098455.6,286047005.3,N
1460098475.5,286047005.4,N
1460098495.3,286047004.0,N
1460098515.1,286047004.1,N
1460098535.9,286046999.7,N
1460098555.7,286047003.2,N
1460098575.5,286047005.9,N
1460098595.4,286047008.7,Y
1460098615.2,286047005.1,P
1460098635.0,286047005.8,P
1460098635.9,286047005.8,P
1460098655.8,286047002.7,Y
1460098675.6,286046996.4,P
1460098695.4,286046994.7,N
1460098715.3,286046992.7,N
1460098735.1,286046990.1,N
1460098736.0,286046990.1,N
1460098755.8,286046991.4,N
1460098775.7,286046991.4,N
1460098795.5,286046996.4,N
